Regional Weather Roundup
Issued by NWS

Home | Current Version | Previous Version | Text Only | Print | Product List | Glossary On
Versions: 1 2 3 4 5 6 7 8 9 10 11 12 13 14 15 16 17 18 19 20 21 22 23 24 25 26 27 28 29 30 31 32 33 34 35 36 37 38 39 40 41 42 43 44 45 46 47 48 49 50
000
ASUS42 KFFC 200910
RWRGA
WEATHER ROUNDUP FOR GEORGIA
NATIONAL WEATHER SERVICE PEACHTREE CITY GA
500 AM EDT MON AUG 20 2018

NOTE: "FAIR" INDICATES FEW OR NO CLOUDS BELOW 12,000 FEET WITH NO
SIGNIFICANT WEATHER AND/OR OBSTRUCTIONS TO VISIBILITY.

* = USE WITH CAUTION. THE STATIONS MARKED WITH AN ASTERISK MAY NOT
REPORT WEATHER SUCH AS PRECIPITATION, FOG, OR THUNDER AND ARE NOT
QUALITY CONTROLLED BY NWS.

THE REMARK "TC" DENOTES TEMPERATURE READING IN DEGREES CELSIUS.

GAZ001>058-201000-
NORTH GEORGIA

CITY           SKY/WX    TMP DP  RH WIND       PRES   REMARKS
ATLANTA        CLOUDY    73  69  87 W6        30.04S
ATHENS         FAIR      72  72 100 W3        30.02S
CHAMBLEE       CLOUDY    72  70  93 SW7       30.03S
PEACHTREE CITY CLOUDY    73  70  90 CALM      30.04F
ROME           CLOUDY    74  70  87 SW3       30.01S
WEST ATLANTA   CLOUDY    72  72 100 SW3       30.03S
GAINESVILLE    FAIR      73  73 100 CALM      30.05S
CARTERSVILLE   CLOUDY    71  71 100 S5        30.03S


CITY           SKY/WX    TMP DP  RH WIND       PRES   REMARKS
DALTON*        CLOUDY    72  72 100 S3        30.03S
LAWRENCEVILLE* FAIR      73  70  90 W7          N/A
MARIETTA       CLOUDY    72  69  92 SW6         N/A
KENNESAW*      CLOUDY    73  70  90 W7        30.04S
CANTON*        CLOUDY    73  70  88 SW3       30.05S
BLAIRSVILLE*   CLOUDY    67  67  99 CALM      30.07F FOG
$$

GAZ059>098-102>109-201000-
CENTRAL GEORGIA

CITY           SKY/WX    TMP DP  RH WIND       PRES   REMARKS
AUGUSTA-BUSH   FAIR      74  72  93 CALM      29.99F
AUGUSTA-DANIEL FAIR      75  73  93 VRB3      30.01S
COLUMBUS       MOCLDY    74  72  93 CALM      30.03S
MACON          FAIR      74  73  97 SW3       30.03R
ROBINS AFB     CLEAR     75  73  95 SW5       30.02R


CITY           SKY/WX    TMP DP  RH WIND       PRES   REMARKS
LAGRANGE*      CLOUDY    75  74  99 CALM      30.04S
SYLVANIA*        N/A     74  73  99 CALM      30.03R
MILLEDGEVILLE* FAIR      73  73 100 CALM      30.02S
$$

GAZ099>101-110>166-201000-
SOUTH GEORGIA

CITY           SKY/WX    TMP DP  RH WIND       PRES   REMARKS
SAVANNAH       FAIR      74  72  93 CALM      30.04R
VALDOSTA       FAIR      73  73 100 S3        30.04R FOG
ALMA           FAIR      75  72  90 S5        30.05R
ST SIMONS      FAIR      79  74  84 W6        30.03R
FT STEWART     FAIR      72  71  96 SW3       30.02R
ALBANY         FOG       74  73  97 CALM      30.05S VSB 1/4
HUNTER AFB     FAIR      73  71  93 CALM      30.01R
MOODY AFB      FAIR      74  74 100 S3        30.04R
BRUNSWICK      FAIR      73  72  94 CALM      30.04R


CITY           SKY/WX    TMP DP  RH WIND       PRES   REMARKS
BAINBRIDGE*      N/A     75  72  88 CALM      30.03S
MOULTRIE*      FAIR      73  72  94 CALM      30.05R
VIDALIA*       FAIR      73  70  88 CALM      30.04R
WAYCROSS*      FAIR      74  72  91 CALM      30.05R
DOUGLAS*       FAIR      73  73 100 S3        30.06R
$$



USA.gov is the U.S. government's official web portal to all federal, state and local government web resources and services.